Location: *
(44.1392°N, 4.8079°E)
Time: 08:14:38
(UTC+00:00)

CZ-4C R/B - Pass Details

Date: 21 June 2021
Orbit: 464 x 632 km, 98.0° (Epoch: 01 August)

Event Time Altitude Azimuth Distance (km) Brightness Sun altitude
Exits shadow 02:15:21 - 153° (SSE) 2,011 5.9 -13.9°
Reaches altitude 10° 02:16:18 10° 150° (SSE) 1,616 5.5 -13.8°
Maximum altitude 02:19:39 53° 73° (ENE) 579 3.7 -13.5°
Drops below altitude 10° 02:23:03 10° 356° (N) 1,635 6.5 -13.1°
Sets 02:25:09 0° 352° (N) 2,528 7.4 -12.9°
